Manteo, NC

10:15 AM EST on February 21, 2017 (GMT -0500)
Dare County Regional

Weather History for KMQI - November, 2012

Change the Weather History Date:

Sunday, November 11, 2012

  Actual Average Record
Temperature  
Mean Temperature 56 °F -  
Max Temperature 69 °F 60 °F 79 °F (1985)
Min Temperature 44 °F 48 °F 35 °F (1971)
Degree Days  
Heating Degree Days 8    
Growing Degree Days 6 (Base 50)    
Moisture  
Dew Point 49 °F    
Average Humidity 78    
Maximum Humidity 94    
Minimum Humidity 46    
Precipitation  
Precipitation 0.00 in - - ()
Sea Level Pressure  
Sea Level Pressure 30.47 in    
Wind  
Wind Speed 1 mph (SSE)    
Max Wind Speed 9 mph    
Max Gust Speed -    
Visibility 8 miles    
Events Fog    
Averages and records for this station are not official NWS values.
T = Trace of Precipitation, MM = Missing Value Source: NWS Daily Summary

Daily Weather History Graph

Daily Weather History Graph

Search for Another Location

Airport or City:

Trip Planner

Search our weather history database for the weather conditions in past years. The results will help you decide how hot, cold, wet, or windy it might be!

Date:

Astronomy

Nov. 11, 2012 Rise Set
Actual Time 6:35 AM EST 4:57 PM EST
Civil Twilight 6:08 AM EST 5:24 PM EST
Nautical Twilight 5:37 AM EST 5:55 PM EST
Astronomical Twilight 5:07 AM EST 6:25 PM EST
Moon 3:50 AM EST (11/11) 3:16 PM EST (11/11)
Length of Visible Light 11h 16m
Length of Day
10h 22m
Waning Crescent, 7% of the Moon is Illuminated
Nov 11
Waning Crescent
Nov 13
New
Nov 20
First Quarter
Nov 28
Full
Dec 6
Last Quarter

Hourly Weather History & Observations

Time (EST) Temp. Dew Point Humidity Pressure Visibility Wind Dir Wind Speed Gust Speed Precip Events Conditions
12:35 AM 46.4 °F 44.6 °F 93% 30.42 in 7.0 mi Calm Calm - N/A   Unknown
1:15 AM 46.4 °F 44.6 °F 93% 30.42 in 5.0 mi Calm Calm - N/A   Mist
1:35 AM 46.4 °F 42.8 °F 87% 30.42 in 4.0 mi Calm Calm - N/A   Mist
1:55 AM 44.6 °F 42.8 °F 93% 30.42 in 2.0 mi Calm Calm - N/A   Mist
2:15 AM 44.6 °F 42.8 °F 93% 30.43 in 3.0 mi Calm Calm - N/A   Mist
2:35 AM 44.6 °F 42.8 °F 93% 30.43 in 7.0 mi Calm Calm - N/A   Unknown
2:55 AM 44.6 °F 42.8 °F 93% 30.43 in 5.0 mi Calm Calm - N/A   Mist
3:35 AM 44.6 °F 42.8 °F 93% 30.43 in 1.0 mi Calm Calm - N/A   Mist
3:55 AM 44.6 °F 42.8 °F 93% 30.44 in 2.5 mi Calm Calm - N/A   Mist
4:15 AM 44.6 °F 42.8 °F 93% 30.44 in 4.0 mi Calm Calm - N/A   Mist
4:35 AM 44.6 °F 42.8 °F 93% 30.45 in 3.0 mi Calm Calm - N/A   Mist
4:55 AM 44.6 °F 42.8 °F 93% 30.45 in 0.5 mi Calm Calm - N/A Fog Fog
5:15 AM 44.6 °F 42.8 °F 93% 30.46 in 0.8 mi Calm Calm - N/A   Mist
5:55 AM 44.6 °F 42.8 °F 93% 30.47 in 2.5 mi Calm Calm - N/A   Mist
6:15 AM 44.6 °F 42.8 °F 93% 30.47 in 4.0 mi Calm Calm - N/A   Mist
6:35 AM 44.6 °F 42.8 °F 93% 30.48 in 2.5 mi Calm Calm - N/A   Mist
6:55 AM 44.6 °F 42.8 °F 93% 30.48 in 2.0 mi Calm Calm - N/A   Mist
7:15 AM 44.6 °F 42.8 °F 93% 30.48 in 4.0 mi Calm Calm - N/A   Mist
7:35 AM 50.0 °F 46.4 °F 87% 30.49 in 5.0 mi Calm Calm - N/A   Mist
7:55 AM 53.6 °F 51.8 °F 94% 30.49 in 7.0 mi Calm Calm - N/A   Unknown
8:55 AM 60.8 °F 51.8 °F 72% 30.50 in 10.0 mi Calm Calm - N/A   Unknown
9:15 AM 60.8 °F 51.8 °F 72% 30.51 in 10.0 mi Calm Calm - N/A   Unknown
9:55 AM 62.6 °F 50.0 °F 63% 30.51 in 10.0 mi Calm Calm - N/A   Unknown
10:15 AM 62.6 °F 48.2 °F 59% 30.52 in 10.0 mi Calm Calm - N/A   Unknown
10:35 AM 64.4 °F 48.2 °F 56% 30.51 in 10.0 mi Calm Calm - N/A   Unknown
11:15 AM 68.0 °F 46.4 °F 46% 30.51 in 10.0 mi Calm Calm - N/A   Unknown
11:35 AM 69.8 °F 50.0 °F 49% 30.50 in 10.0 mi Calm Calm - N/A   Unknown
12:15 PM 69.8 °F 51.8 °F 53% 30.48 in 10.0 mi SSE 4.6 mph - N/A   Unknown
12:35 PM 69.8 °F 51.8 °F 53% 30.48 in 10.0 mi South 6.9 mph - N/A   Unknown
12:55 PM 69.8 °F 51.8 °F 53% 30.47 in 10.0 mi South 6.9 mph - N/A   Unknown
1:15 PM 69.8 °F 51.8 °F 53% 30.47 in 10.0 mi South 5.8 mph - N/A   Unknown
1:35 PM 69.8 °F 53.6 °F 56% 30.46 in 10.0 mi SSE 8.1 mph - N/A   Unknown
1:55 PM 69.8 °F 53.6 °F 56% 30.46 in 10.0 mi South 9.2 mph - N/A   Unknown
2:15 PM 69.8 °F 51.8 °F 53% 30.46 in 10.0 mi South 8.1 mph - N/A   Unknown
2:35 PM 69.8 °F 51.8 °F 53% 30.46 in 10.0 mi SSE 9.2 mph - N/A   Unknown
2:55 PM 69.8 °F 51.8 °F 53% 30.46 in 10.0 mi SSE 6.9 mph - N/A   Unknown
3:15 PM 68.0 °F 51.8 °F 56% 30.46 in 10.0 mi SE 8.1 mph - N/A   Unknown
3:35 PM 68.0 °F 51.8 °F 56% 30.46 in 10.0 mi SE 9.2 mph - N/A   Unknown
3:55 PM 68.0 °F 51.8 °F 56% 30.47 in 10.0 mi SSE 6.9 mph - N/A   Unknown
4:15 PM 64.4 °F 51.8 °F 64% 30.47 in 10.0 mi Calm Calm - N/A   Unknown
4:35 PM 62.6 °F 51.8 °F 68% 30.47 in 10.0 mi Calm Calm - N/A   Unknown
4:55 PM 60.8 °F 51.8 °F 72% 30.47 in 10.0 mi Calm Calm - N/A   Unknown
5:15 PM 60.8 °F 51.8 °F 72% 30.48 in 10.0 mi Calm Calm - N/A   Unknown
5:35 PM 59.0 °F 51.8 °F 77% 30.48 in 10.0 mi Calm Calm - N/A   Unknown
5:55 PM 57.2 °F 51.8 °F 82% 30.49 in 10.0 mi Calm Calm - N/A   Unknown
6:15 PM 57.2 °F 51.8 °F 82% 30.49 in 10.0 mi Calm Calm - N/A   Unknown
6:35 PM 55.4 °F 51.8 °F 88% 30.49 in 10.0 mi Calm Calm - N/A   Unknown
6:55 PM 55.4 °F 51.8 °F 88% 30.49 in 10.0 mi Calm Calm - N/A   Unknown
7:15 PM 55.4 °F 51.8 °F 88% 30.49 in 10.0 mi Calm Calm - N/A   Unknown
7:55 PM 55.4 °F 51.8 °F 88% 30.49 in 10.0 mi Calm Calm - N/A   Unknown
8:15 PM 57.2 °F 51.8 °F 82% 30.49 in 10.0 mi Calm Calm - N/A   Unknown
8:35 PM 55.4 °F 51.8 °F 88% 30.49 in 10.0 mi Calm Calm - N/A   Unknown
8:55 PM 55.4 °F 51.8 °F 88% 30.49 in 10.0 mi Calm Calm - N/A   Unknown
9:15 PM 55.4 °F 51.8 °F 88% 30.49 in 10.0 mi Calm Calm - N/A   Unknown
9:35 PM 55.4 °F 51.8 °F 88% 30.49 in 10.0 mi Calm Calm - N/A   Unknown
9:55 PM 55.4 °F 51.8 °F 88% 30.49 in 10.0 mi Calm Calm - N/A   Unknown
10:15 PM 55.4 °F 51.8 °F 88% 30.49 in 10.0 mi Calm Calm - N/A   Unknown
11:15 PM 57.2 °F 53.6 °F 88% 30.48 in 10.0 mi Calm Calm - N/A   Unknown
11:35 PM 55.4 °F 53.6 °F 94% 30.48 in 7.0 mi Calm Calm - N/A   Unknown
11:55 PM 55.4 °F 53.6 °F 94% 30.48 in 5.0 mi Calm Calm - N/A   Mist